East Hartford, CT

11:21 PM EST on February 27, 2017 (GMT -0500)
Hartford-brainard

Weather History for KHFD - September, 2012

Change the Weather History Date:

Saturday, September 22, 2012

  Actual Average Record
Temperature  
Mean Temperature 60 °F -  
Max Temperature 73 °F 73 °F 92 °F (1970)
Min Temperature 48 °F 50 °F 31 °F (1962)
Degree Days  
Heating Degree Days 4    
Growing Degree Days 10 (Base 50)    
Moisture  
Dew Point 53 °F    
Average Humidity 82    
Maximum Humidity 100    
Minimum Humidity 55    
Precipitation  
Precipitation 0.23 in - - ()
Sea Level Pressure  
Sea Level Pressure 29.93 in    
Wind  
Wind Speed 3 mph (SE)    
Max Wind Speed 17 mph    
Max Gust Speed 34 mph    
Visibility 8 miles    
Events Fog , Rain    
Averages and records for this station are not official NWS values.
T = Trace of Precipitation, MM = Missing Value Source: NWS Daily Summary

Daily Weather History Graph

Daily Weather History Graph

Search for Another Location

Airport or City:

Trip Planner

Search our weather history database for the weather conditions in past years. The results will help you decide how hot, cold, wet, or windy it might be!

Date:

Astronomy

Sep. 22, 2012 Rise Set
Actual Time 6:38 AM EDT 6:47 PM EDT
Civil Twilight 6:10 AM EDT 7:14 PM EDT
Nautical Twilight 5:38 AM EDT 7:47 PM EDT
Astronomical Twilight 5:05 AM EDT 8:20 PM EDT
Moon 1:58 PM EDT (9/22) 11:43 PM EDT (9/22)
Length of Visible Light 13h 04m
Length of Day
12h 08m
Waxing Crescent, 48% of the Moon is Illuminated
Sep 22
Waxing Crescent
Sep 22
First Quarter
Sep 29
Full
Oct 8
Last Quarter
Oct 15
New

Hourly Weather History & Observations

Time (EDT) Temp. Dew Point Humidity Pressure Visibility Wind Dir Wind Speed Gust Speed Precip Events Conditions
12:53 AM 55.0 °F 48.9 °F 80% 30.02 in 10.0 mi Calm Calm - N/A   Clear
1:53 AM 54.0 °F 48.9 °F 83% 30.01 in 10.0 mi Calm Calm - N/A   Clear
2:53 AM 52.0 °F 50.0 °F 93% 30.01 in 10.0 mi Calm Calm - N/A   Clear
3:53 AM 51.1 °F 48.0 °F 89% 30.00 in 10.0 mi Calm Calm - N/A   Clear
4:53 AM 50.0 °F 48.0 °F 93% 30.00 in 10.0 mi Calm Calm - N/A   Clear
5:24 AM 48.2 °F 46.4 °F 93% 30.00 in 10.0 mi Calm Calm - N/A   Scattered Clouds
5:53 AM 48.9 °F 46.9 °F 93% 30.00 in 9.0 mi NNE 3.5 mph - N/A   Partly Cloudy
6:11 AM 51.8 °F 48.2 °F 88% 30.00 in 7.0 mi NNE 3.5 mph - N/A   Mostly Cloudy
6:53 AM 50.0 °F 48.0 °F 93% 30.01 in 4.0 mi NE 5.8 mph - N/A   Overcast
7:03 AM 50.0 °F 48.2 °F 94% 30.02 in 3.0 mi NNE 5.8 mph - N/A   Overcast
7:18 AM 50.0 °F 48.2 °F 94% 30.01 in 1.8 mi NE 4.6 mph - N/A   Overcast
7:30 AM 50.0 °F 48.2 °F 94% 30.01 in 0.5 mi NNE 4.6 mph - N/A Fog Fog
7:53 AM 50.0 °F 48.0 °F 93% 30.01 in 0.5 mi NE 6.9 mph - N/A Fog Fog
8:02 AM 48.2 °F 48.2 °F 100% 30.00 in 1.2 mi Variable 4.6 mph - N/A   Overcast
8:08 AM 50.0 °F 48.2 °F 94% 30.00 in 4.0 mi Calm Calm - N/A   Overcast
8:21 AM 50.0 °F 48.2 °F 94% 30.00 in 10.0 mi Calm Calm - N/A   Overcast
8:53 AM 52.0 °F 48.9 °F 89% 30.00 in 10.0 mi NE 3.5 mph - N/A   Overcast
9:26 AM 51.8 °F 48.2 °F 88% 29.99 in 9.0 mi Calm Calm - N/A   Mostly Cloudy
9:43 AM 53.6 °F 48.2 °F 82% 29.98 in 10.0 mi Calm Calm - N/A   Scattered Clouds
9:53 AM 55.0 °F 48.9 °F 80% 29.98 in 10.0 mi Calm Calm - N/A   Partly Cloudy
10:53 AM 59.0 °F 50.0 °F 72% 29.96 in 10.0 mi Calm Calm - N/A   Clear
11:53 AM 64.9 °F 54.0 °F 68% 29.93 in 10.0 mi Calm Calm - N/A   Mostly Cloudy
12:53 PM 70.0 °F 55.0 °F 59% 29.90 in 10.0 mi South 9.2 mph - N/A   Clear
1:53 PM 73.0 °F 55.9 °F 55% 29.87 in 10.0 mi South 9.2 mph 16.1 mph N/A   Clear
2:53 PM 73.0 °F 57.0 °F 57% 29.86 in 10.0 mi South 11.5 mph 17.3 mph N/A   Scattered Clouds
3:53 PM 72.0 °F 57.9 °F 61% 29.86 in 10.0 mi SSW 9.2 mph 19.6 mph N/A   Overcast
4:16 PM 71.6 °F 57.2 °F 60% 29.86 in 10.0 mi South 13.8 mph 19.6 mph N/A   Mostly Cloudy
4:53 PM 70.0 °F 59.0 °F 68% 29.86 in 10.0 mi SSE 6.9 mph - N/A   Overcast
5:15 PM 69.8 °F 59.0 °F 68% 29.85 in 10.0 mi SSE 6.9 mph - N/A   Overcast
5:53 PM 69.1 °F 59.0 °F 70% 29.85 in 10.0 mi South 4.6 mph - N/A   Overcast
6:53 PM 68.0 °F 59.0 °F 73% 29.85 in 10.0 mi SSE 6.9 mph - N/A   Overcast
7:53 PM 68.0 °F 60.1 °F 76% 29.84 in 10.0 mi SSE 5.8 mph - N/A   Overcast
8:53 PM 66.0 °F 62.1 °F 87% 29.81 in 10.0 mi SE 5.8 mph - N/A   Overcast
9:53 PM 68.0 °F 64.0 °F 87% 29.81 in 8.0 mi SSE 4.6 mph - N/A   Overcast
10:53 PM 70.0 °F 64.0 °F 81% 29.82 in 9.0 mi West 17.3 mph 34.5 mph 0.00 in Rain Light Rain
11:04 PM 64.4 °F 60.8 °F 88% 29.83 in 1.8 mi NW 9.2 mph - 0.14 in Rain Heavy Rain
11:08 PM 64.4 °F 60.8 °F 88% 29.83 in 2.0 mi NW 5.8 mph 16.1 mph 0.14 in Rain Rain
11:17 PM 64.4 °F 60.8 °F 88% 29.83 in 3.0 mi Calm Calm - 0.17 in Rain Heavy Rain
11:53 PM 64.9 °F 62.1 °F 90% 29.85 in 5.0 mi South 6.9 mph - 0.23 in Rain Light Rain